Regional Weather Roundup
Issued by NWS

Home | Current Version | Previous Version | Text Only | Print | Product List | Glossary On
Versions: 1 2 3 4 5 6 7 8 9 10 11 12 13 14 15 16 17 18 19 20 21 22 23 24 25 26 27 28 29 30 31 32 33 34 35 36 37 38 39 40 41 42 43 44 45 46 47 48 49 50
000
ASUS46 KSTO 090515
RWRCA

NORTHERN AND CENTRAL CA REGIONAL WEATHER ROUNDUP
NATIONAL WEATHER SERVICE SACRAMENTO CA
900 PM PST THU DEC 08 2016

NOTE: FAIR INDICATES FEW OR NO CLOUDS BELOW 12,000 FEET WITH NO
SIGNIFICANT WEATHER AND/OR OBSTRUCTIONS TO VISIBILITY.

CAZ001-003-090600-
NORTHWEST AREA

CITY           SKY/WX    TMP DP  RH WIND       PRES   REMARKS
CRESCENT CITY  LGT RAIN  53  53 100 S7        30.04R FOG
UKIAH          LGT RAIN  48  47  96 CALM      30.16S FOG
$$

CAZ006-505>513-090600-
BAY AREA

CITY           SKY/WX    TMP DP  RH WIND       PRES   REMARKS
SANTA ROSA     LGT RAIN  51  51 100 CALM      30.15S FOG
SAN RAFAEL     N/A       53  MM  MM MISG
NAPA           CLOUDY    54  51  90 E13       30.18R
CONCORD        CLOUDY    52  49  89 N5        30.19R FOG
OAKLAND CITY   N/A       58  MM  MM MISG
OAKLAND        LGT RAIN  58  57  97 S3        30.18R FOG
SAN FRAN CITY  N/A       57  MM 100 MISG
SAN FRAN ARPT  MOCLDY    58  56  93 SE6       30.17R
LIVERMORE      CLOUDY    56  54  93 E3        30.17R FOG
HAYWARD        CLOUDY    59  54  83 SE7       30.17R
REDWOOD CITY   N/A       56  MM  96 MISG
MOFFETT ARPT   MOCLDY    59  54  83 SE8       30.18R
SAN JOSE ARPT  MOCLDY    60  55  83 SE9       30.18R
$$
CAZ034-037-514>518-090600-
CENTRAL COAST

CITY           SKY/WX    TMP DP  RH WIND       PRES   REMARKS
WATSONVILLE    LGT RAIN  57  57 100 S5        30.21R FOG
SALINAS        CLOUDY    58  55  90 SE12      30.20R
MONTEREY       CLOUDY    58  57  97 VRB5      30.20R
SAN LUIS OBISP CLOUDY    60  58  92 SE5       30.26R FOG
SANTA MARIA    CLOUDY    58  58 100 SE3       30.26R FOG
$$
CAZ015-016-090600-
NORTHERN SACRAMENTO VALLEY

CITY           SKY/WX    TMP DP  RH WIND       PRES   REMARKS
REDDING        CLOUDY    43  42  97 CALM      30.19S FOG
RED BLUFF      CLOUDY    42  41  96 NW5       30.21S FOG
OROVILLE       CLOUDY    45  43  93 W5        30.23R FOG
$$
CAZ016>018-090600-
SOUTHERN SACRAMENTO VALLEY

CITY           SKY/WX    TMP DP  RH WIND       PRES   REMARKS
AUBURN         CLOUDY    52  52 100 S3        30.20S
BEALE AFB      DRIZZLE   46  46  99 NW5       30.20R FOG
LINCOLN        CLOUDY    41  41 100 NW3       30.20R
MARYSVILLE     LGT RAIN  45  44  97 NW5       30.22R FOG
PLACERVILLE    CLOUDY    50  50 100 S13       30.21S
SAC INTL ARPT  LGT RAIN  45  45 100 N5        30.20R FOG
MATHER AIRPORT PTCLDY    54  54 100 S7        30.20R
DOWNTOWN SAC   N/A       52  MM  MM MISG
SAC EXEC ARPT  LGT RAIN  48  48 100 NW3       30.20R FOG
VACAVILLE      CLOUDY    47  47 100 N3        30.21S FOG
TRAVIS AFB     CLOUDY    46  46 100 N7        30.18R FOG
$$
CAZ019>021-090600-
SAN JOAQUIN VALLEY

CITY           SKY/WX    TMP DP  RH WIND       PRES   REMARKS
STOCKTON       LGT RAIN  53  52  96 SE12      30.18S
MODESTO        PTCLDY    55  51  86 SE3       30.21R
MERCED         MOCLDY    54  52  93 E8        30.21R
LEMOORE        CLOUDY    54  52  93 SE7       30.23R FOG
FRESNO         CLOUDY    55  53  93 E7        30.23S
HANFORD        CLOUDY    55  55 100 E3        30.24R
PORTERVILLE    PTCLDY    54  54 100 E5        30.25R
BAKERSFIELD    CLOUDY    59  54  83 E6        30.24S
$$
CAZ011-012-071-090600-
NORTHERN MOUNTAINS

CITY           SKY/WX    TMP DP  RH WIND       PRES   REMARKS
YREKA          PTCLDY    40  34  79 W14       30.03R WCI  32
MOUNT SHASTA   CLOUDY    39  35  86 E3        30.12R
ALTURAS        CLOUDY    35  34  96 NW5       30.07R WCI  31
$$
CAZ011-012-071-090600-
SIERRA NEVADA MTNS

CITY           SKY/WX    TMP DP  RH WIND       PRES   REMARKS
BLUE CANYON    RAIN      42  41  96 S12G20    30.23R VSB 1/2
TRUCKEE        CLOUDY    41  34  75 CALM      30.19R
TAHOE VLY ARPT CLOUDY    43  33  68 S13G23    30.19R
MAMMOTH LAKES  FAIR      46  23  41 W8G17     30.22S
$$




USA.gov is the U.S. government's official web portal to all federal, state and local government web resources and services.